Regional Weather Roundup
Issued by NWS

Home | Current Version | Previous Version | Text Only | Print | Product List | Glossary On
Versions: 1 2 3 4 5 6 7 8 9 10 11 12 13 14 15 16 17 18 19 20 21 22 23 24 25 26 27 28 29 30 31 32 33 34 35 36 37 38 39 40 41 42 43 44 45 46 47 48 49 50
000
ASUS44 KEWX 180302
RWRTX
SOUTH TEXAS REGIONAL WEATHER ROUNDUP
NATIONAL WEATHER SERVICE AUSTIN/SAN ANTONIO TX
1000 PM CDT THU APR 17 2014

NOTE: "FAIR" INDICATED FEW OR NO CLOUDS BELOW 12,000 FEET WITH NO
SIGNIFICANT WEATHER AND/OR OBSTRUCTIONS TO VISIBILITY.

* - THESE STATIONS ARE NOT NWS OR FAA STATIONS...AND ARE NOT SUBJECT
    TO NWS AND FAA QUALITY CONTROL.

TXZ171-172-183>190-180400-
TEXAS HILL COUNTRY AND EDWARDS PLATEAU

CITY           SKY/WX    TMP DP  RH WIND       PRES   REMARKS
JUNCTION       CLOUDY    61  56  83 E8        30.15R
*LLANO         CLOUDY    63  59  88 E3        30.18R
BURNET         CLOUDY    61  57  87 SE3       30.17R
*HORSESHOE BAY CLOUDY    61  61 100 SE5       30.15R
*KERRVILLE     CLOUDY    61  58  90 E5        30.15R
*FREDERICKSBRG CLOUDY    59  57  91 E6        30.15R
*ROCKSPRINGS   CLOUDY    64  54  68 NE5       30.14R
*BOERNE STAGE  CLOUDY    61  57  88 E6        30.15R
*CASTROVILLE   CLOUDY    64  59  82 E8        30.14R
HONDO          CLOUDY    67  60  78 E13       30.14R
*UVALDE        MOCLDY    68  62  82 E14G20    30.10R
DEL RIO        CLEAR     73  56  54 E15G23    30.06R
LAUGHLIN AFB   CLEAR     70  58  66 SE18      30.07R
CARRIZO SPRGS    N/A     70  59  68 E10G17    30.05R
$$

TXZ173-191>194-202-209-217>225-228-180400-
CENTRAL AND SOUTH CENTRAL TEXAS

CITY           SKY/WX    TMP DP  RH WIND       PRES   REMARKS
GEORGETOWN     CLOUDY    61  57  88 CALM      30.17R
AUSTIN/BERGSTM LGT RAIN  61  60  97 NE7       30.15R FOG
AUSTIN/MABRY   CLOUDY    62  60  93 CALM      30.17R FOG
*AUSTIN/EXEC   CLOUDY    61  61 100 CALM      30.16R FOG
*LAGO VISTA    LGT RAIN  61  59  94 CALM      30.17R
SAN MARCOS     CLOUDY    61  57  88 NE10      30.17R
NEW BRAUNFELS  LGT RAIN  62  62 100 NE9       30.13R FOG
RANDOLPH AFB   DRIZZLE   63  61  94 E7        30.14R FOG
PT SAN ANTONIO CLOUDY    63  61  94 E8        30.12R
SAN ANTONIO    LGT RAIN  63  62  97 E5        30.14R FOG
STINSON FIELD  CLOUDY    64  62  93 E8        30.12R FOG
*PLEASANTON    HVY RAIN  65  59  80 E8        30.13R
*LA GRANGE     DRIZZLE   63  61  94 CALM      30.15R
*GIDDINGS      HVY RAIN  63  60  89 E3        30.19R
*GONZALES      CLOUDY    64  62  94 CALM      30.14R
$$

TXZ163>164-176>182-195>201-210>213-226-227-235-180400-
SOUTHEAST TEXAS

CITY           SKY/WX    TMP DP  RH WIND       PRES   REMARKS
COLLEGE STN    LGT RAIN  63  59  87 NE5       30.16R
*BRYAN         CLOUDY    64  56  77 SE7       30.15R
*CALDWELL      DRIZZLE   61  61 100 NE5       30.19R
*CROCKETT      CLOUDY    66  55  68 E3        30.19R
*BRENHAM       DRIZZLE   61  59  93 CALM      30.17R
HUNTSVILLE     CLOUDY    65  52  62 CALM      30.15R
CONROE         CLOUDY    65  55  70 SE7       30.16R
HOUSTON BUSH   CLOUDY    64  56  75 E10       30.15R
HOUSTON HOBBY  MOCLDY    64  53  67 E7        30.14R
*HOUSTON SW AP CLOUDY    63  55  76 E6        30.15R
PEARLAND       CLOUDY    64  54  69 E6        30.15R
HOUSTON HOOKS  CLOUDY    66  56  70 E8        30.15R
ELLINGTON FLD  CLOUDY    64  57  77 NE5       30.16R
SUGAR LAND     CLOUDY    65  54  67 E9        30.14R
*HOUSTON EXEC  CLOUDY    64  64 100 E7        30.16R
*CLEVELAND MUN CLOUDY    64  56  78 SE3       30.17R
*WHARTON       CLOUDY    63  58  83 E7        30.14S
$$

TXZ214>216-236>238-180400-
THE UPPER TEXAS COAST

CITY           SKY/WX    TMP DP  RH WIND       PRES   REMARKS
*ORANGE        PTCLDY    59  55  85 N3        30.16S
PORT ARTHUR    CLOUDY    62  54  74 N7        30.14R
GALVESTON      CLOUDY    64  59  83 NE10      30.14R
ANGLETON       CLOUDY    63  58  83 NE6       30.13R
*BAY CITY      CLOUDY    64  61  88 E7        30.12R
PALACIOS       CLOUDY    64  60  87 NE12      30.11R
$$

TXZ229>234-239>247-180400-
TEXAS COASTAL BEND AND RIO GRANDE PLAINS

CITY           SKY/WX    TMP DP  RH WIND       PRES   REMARKS
VICTORIA       CLOUDY    64  59  83 E9        30.12S
*BEEVILLE      CLOUDY    64  64 100 E8        30.11R
ROCKPORT       CLOUDY    66  63  90 E14       30.10R
*PORT ARANSAS  CLOUDY    65  63  91 E14       30.08R
*PORT LAVACA   CLOUDY    62  59  90 E14       30.11R
*INGLESIDE     CLOUDY    67  64  91 E15G21    30.08R
CORPUS CHRISTI DRIZZLE   66  62  87 E13       30.09R
CORPUS NAS     CLOUDY    67  63  87 E20       30.08R
*ROBSTOWN      CLOUDY    66  64  93 E13       30.08R FOG
ALICE          LGT RAIN  65  64  97 E9        30.09R FOG
KINGSVILLE NAS LGT RAIN  68  64  87 E16       30.08R
COTULLA        CLOUDY    69  61  75 E15G22    30.09R
*FAITH RANCH   CLEAR     72  57  60 E12G17    30.06R
LAREDO         CLOUDY    72  63  73 E14       30.08R
$$

TXZ248>255-180400-
DEEP SOUTH TEXAS

CITY           SKY/WX    TMP DP  RH WIND       PRES   REMARKS
BROWNSVILLE    CLOUDY    70  67  90 E8        30.03R
PORT ISABEL    CLOUDY    70  66  87 E9        30.04R
*SOUTH PADRE   LGT RAIN  68  66  94 CALM      30.03R
HARLINGEN      CLOUDY    68  67  96 E7        30.04R
*HEBBRONVILLE  CLOUDY    68  62  79 E13       30.08R
MCALLEN        LGT RAIN  69  67  93 E9        30.05R
*WESLACO       CLOUDY    68  65  91 E5        30.04R
FALFURRIAS     CLOUDY    70  65  85 E13       30.07R
EDINBURG       CLOUDY    71  65  83 E10       30.05R
*ZAPATA        CLOUDY    73  61  66 E8        30.03R
$$

TXZ213>215-236>238-242>244-246-247-251-254-255-180400-
CMAN STATIONS

STATION/POSITION TIME  TEMP    WIND        PRES    WAVE
                       AIR SEA DIR/SP/G            HT/PER
                 (UTC) (F)     (DEG/KT/KT) (MB)    (FT/S)
SABINE PASS      0200   62 65   40/  6/  8 1020.1
SEA RIM ST PARK  0200   62      50/  6/  7 1020.7
NORTH JETTY/GLS  0200   64 68  100/ 14/ 16   N/A
EAGLE POINT      0200   63 59   80/ 11/ 12 1020.3
MORGANS POINT    0200   64 62   80/  7/  9 1021.9
MISSION/ARANSAS  0200   65      70/ 15     1019.0
PORT O`CONNOR    0200           70/ 17/ 20   N/A
PORT ARANSAS     0200   65 67   60/ 21/ 25 1018.0
MALAQUITE BEACH  0200   67 68   50/ 19/ 22 1017.5
BAFFIN BAY       0200   67 68   70/ 19/ 22 1017.4
PORT ISABEL      0200   68 67   70/  9/ 12 1016.9
$$

GMZ080-GMZ150>470-180400-
OFFSHORE BUOY REPORTS

STATION/POSITION TIME  TEMP    WIND        PRES    WAVE
                       AIR SEA DIR/SP/G            HT/PER
                 (UTC) (F)     (DEG/KT/KT) (MB)    (FT/S)
20 E GALVESTON   0300   64 66   70/ 12/ 14 1020.0    4/ 6
35 NE PT MANSFLD 0300   69 68   80/ 17/ 23 1017.1    6/ 7
$$



USA.gov is the U.S. government's official web portal to all federal, state and local government web resources and services.